OBJECT F, 67679

Orbit data source: Space-Track

You're viewing an Uncataloged Satellite

Recently launched and/or uncataloged satellites may have evolving metadata. Metadata may include but not limited to: Owner, Maufacturer, Bus, Motor, and Mission.

OBJECT F, 67679 is a satellite owned by VVKO VKS (CIS) in SSO that was launched on Thu, 05 Feb 2026 UTC via a SOYUZ-2-1B launch vehicle from the Plesetsk Missile And Space Complex (PKMTR). Unknown objects in Earth's orbit typically refer to objects detected orbiting the Earth but have not yet been identified or cataloged. These objects could be anything from previously untracked satellites, spent rocket stages, debris from satellite collisions, or even natural meteoroids temporarily captured by Earth's gravity.

Loading next visibility...
Identifier
67679, 2026-023F
Orbit
SSO
Country
Flag of CISCIS
Related business
Manufacturer
Unknown (RU)
Mission
Spacecraft
Bus & Motor
UNK, Unknown motor
Mass
~500 kg wet, ~500 kg dry
Launch date (UTC)
2026-02-05 (2 months ago)
Launch vehicle
SOYUZ-2-1B
Launch site
Plesetsk Missile And Space Complex (PKMTR)
Object type
Unknown
Shape & HBR
Unknown shape, 1.1 m
Radar Cross Section
RCS unknown

Expand to show TLE details & history
Last TLE update: 11 hours ago

TLE from 11 hours ago
0 OBJECT F
1 67679U 26023F   26103.91560733  .00005538  00000-0  22857-3 0  9992
2 67679  96.6273 175.2837 0019937   2.4201 357.7131 15.24192657 10203
Epoch: 2026-04-13T21:58Z
TLE epoch observation values (Epoch: 2026-04-13T21:58:28.473Z)
Latitude
-0.00004°
Longitude
3.56571°
Altitude
482.636 km
Speed
7.632 km/s
True Right ascension
11h 41m 08s
True Declination
0° 00' 00"
Sunlit
Object was in full shadow at epoch
Visualization orbit readout
Latitude
Unknown
Longitude
Unknown
Altitude
Unknown
Speed
Unknown
Apparent Right ascension
Unknown
Apparent Declination
Unknown
Sunlit
N/A
Visualization observer readout
Local Sidereal Time
15:39:19
Azimuth
Unknown
Elevation
Unknown
Doppler factor
Unknown
Orbital elements
Apogee altitude
503.833 km
Perigee altitude
476.446 km
Semi-major axis
6,868.276 km
Eccentricity
0.00199
Inclination
96.6273°
RAAN
175.2837°
Arg. of periapsis
2.4201°
True anomaly
357.70396°
Mean anomaly
357.7131°
Eccentric anomaly
357.70853°
Mean motion
3.81304 °/min
Orbital period
94.41 mins
BSTAR
0.00022857
Loading maneuver chart data...
Computing Atmospheric mass density...
Loading historical data...
Loading historical data...
Loading historical data...
Loading historical data...
Loading historical data...
Loading historical data...
Loading historical data...

Documentation

Showing up to 5 results
|